Satellite-Ground Cal/Val Site Overpasses Predictions

Prediction of Satellite NPP Overpassing Cal/Val Site: Antarctic Dome C

Ground Cal/Val Site Location: Latitude: -75.10, Longitude: 123.35; Satellite-Ground Site NADIR distance within 100 km.

Table of predicted overpasses for the next 14.0 days since TLE Epoch: 12/4/2021
Interval Starting Time Ending Time Minimum Distance Time Minimum Distance (km)
1 12/04/2021 15:09:07 12/04/2021 15:09:10 12/04/2021 15:09:08 99.05
2 12/05/2021 14:50:03 12/05/2021 14:50:32 12/05/2021 14:50:18 12.66
3 12/07/2021 07:32:51 12/07/2021 07:33:20 12/07/2021 07:33:05 6.03
4 12/10/2021 14:56:15 12/10/2021 14:56:43 12/10/2021 14:56:29 23.65
5 12/11/2021 14:37:30 12/11/2021 14:37:46 12/11/2021 14:37:38 83.61
6 12/12/2021 07:39:03 12/12/2021 07:39:30 12/12/2021 07:39:16 41.38
7 12/13/2021 07:20:15 12/13/2021 07:20:36 12/13/2021 07:20:25 68.56
8 12/15/2021 15:02:28 12/15/2021 15:02:51 12/15/2021 15:02:39 60.46
9 12/16/2021 14:43:36 12/16/2021 14:44:02 12/16/2021 14:43:49 48.95
